RYR31CG LFOB-LATI

Flight info

Callsign RYR31CG
Flight time 2h 18m
Altitude 37000
Route LANVI1T LANVI DCT DEVDI DCT RIPUS DCT RESIA DCT ROTAR DCT LOS DCT SIPAL DCT PETAK PETAK3N
Aircraft B738/M-SDE2E3FGHIRWXY/LB1

Departure

Time 2026-05-08 14:01
Airport Beauvais-Tillé airport (LFOB)

Arrival

Time 2026-05-08 16:19
Airport Tirana International Airport Mother Teresa (LATI)
Time Latitude Longitude Altitude Speed Heading
2026-05-08 14:00 49.44669 2.13059 310 ft 1 kts 303°
2026-05-08 14:01 49.44737 2.12900 313 ft 47 kts 303°
2026-05-08 14:01 49.45043 2.12195 332 ft 109 kts 304°
2026-05-08 14:01 49.45569 2.10995 382 ft 155 kts 304°
2026-05-08 14:01 49.46102 2.09620 976 ft 147 kts 301°
2026-05-08 14:02 49.46709 2.08178 1247 ft 169 kts 312°
2026-05-08 14:02 49.47674 2.07143 1805 ft 171 kts 346°
2026-05-08 14:02 49.48922 2.06848 2128 ft 196 kts 355°
2026-05-08 14:02 49.50371 2.06728 2353 ft 221 kts
2026-05-08 14:03 49.51861 2.07502 2665 ft 234 kts 37°
2026-05-08 14:03 49.52973 2.09422 2912 ft 252 kts 64°
2026-05-08 14:03 49.53399 2.12071 3509 ft 260 kts 90°
2026-05-08 14:03 49.53011 2.14769 4325 ft 260 kts 116°
2026-05-08 14:04 49.52079 2.17165 5140 ft 262 kts 122°
2026-05-08 14:04 49.51093 2.19527 5916 ft 264 kts 122°
2026-05-08 14:04 49.50113 2.21942 6631 ft 268 kts 121°
2026-05-08 14:04 49.49149 2.24416 7332 ft 271 kts 121°
2026-05-08 14:05 49.48189 2.26941 8035 ft 276 kts 120°
2026-05-08 14:05 49.47244 2.29483 8761 ft 278 kts 120°
2026-05-08 14:05 49.46282 2.32085 9436 ft 282 kts 120°
2026-05-08 14:05 49.45306 2.34728 10099 ft 286 kts 120°
2026-05-08 14:06 49.44302 2.37453 10489 ft 303 kts 120°
2026-05-08 14:06 49.43228 2.40365 10725 ft 323 kts 120°
2026-05-08 14:06 49.42105 2.43418 11219 ft 332 kts 121°
2026-05-08 14:06 49.40960 2.46525 11922 ft 335 kts 121°
2026-05-08 14:07 49.39803 2.49644 12606 ft 338 kts 121°
2026-05-08 14:07 49.38631 2.52805 13278 ft 342 kts 121°
2026-05-08 14:07 49.37446 2.55990 13966 ft 346 kts 121°
2026-05-08 14:07 49.36247 2.59216 14655 ft 349 kts 121°
2026-05-08 14:08 49.35037 2.62466 15340 ft 353 kts 122°
2026-05-08 14:08 49.33813 2.65747 16020 ft 356 kts 122°
2026-05-08 14:08 49.32576 2.69064 16641 ft 361 kts 122°
2026-05-08 14:08 49.31324 2.72419 17260 ft 364 kts 122°
2026-05-08 14:09 49.30061 2.75798 17901 ft 367 kts 122°
2026-05-08 14:09 49.28784 2.79207 18521 ft 370 kts 122°
2026-05-08 14:09 49.27496 2.82642 19112 ft 374 kts 122°
2026-05-08 14:09 49.26193 2.86114 19676 ft 378 kts 122°
2026-05-08 14:10 49.25322 2.88429 20054 ft 380 kts 122°
2026-05-08 14:10 49.23998 2.91947 20620 ft 383 kts 122°
2026-05-08 14:10 49.22663 2.95495 21148 ft 387 kts 122°
2026-05-08 14:10 49.21314 2.99074 21683 ft 390 kts 122°
2026-05-08 14:11 49.19953 3.02678 22209 ft 393 kts 122°
2026-05-08 14:11 49.18569 3.06295 22707 ft 396 kts 125°
2026-05-08 14:11 49.16992 3.09749 23181 ft 397 kts 130°
2026-05-08 14:11 49.15284 3.13082 23655 ft 400 kts 131°
2026-05-08 14:12 49.13534 3.16404 24113 ft 403 kts 131°
2026-05-08 14:12 49.11776 3.19754 24548 ft 406 kts 131°
2026-05-08 14:12 49.10019 3.23145 24971 ft 409 kts 131°
2026-05-08 14:12 49.08257 3.26582 25392 ft 413 kts 130°
2026-05-08 14:13 49.06489 3.30054 25797 ft 416 kts 130°
2026-05-08 14:13 49.04711 3.33552 26183 ft 419 kts 130°
2026-05-08 14:13 49.02920 3.37077 26563 ft 422 kts 130°
2026-05-08 14:13 49.01119 3.40618 26928 ft 425 kts 130°
2026-05-08 14:14 48.99302 3.44187 27288 ft 428 kts 130°
2026-05-08 14:14 48.97472 3.47774 27649 ft 430 kts 130°
2026-05-08 14:14 48.95627 3.51383 27980 ft 433 kts 130°
2026-05-08 14:14 48.94080 3.55335 28254 ft 441 kts 112°
2026-05-08 14:15 48.93401 3.59902 28580 ft 446 kts 96°
2026-05-08 14:15 48.93156 3.64610 28951 ft 447 kts 95°
2026-05-08 14:15 48.92950 3.69353 29198 ft 451 kts 95°
2026-05-08 14:15 48.92743 3.74066 29465 ft 454 kts 95°
2026-05-08 14:16 48.92514 3.78929 29788 ft 456 kts 95°
2026-05-08 14:16 48.92271 3.83737 30098 ft 457 kts 95°
2026-05-08 14:16 48.92017 3.88499 30401 ft 458 kts 96°
2026-05-08 14:16 48.91752 3.93333 30658 ft 460 kts 96°
2026-05-08 14:17 48.91480 3.98203 30857 ft 464 kts 96°
2026-05-08 14:17 48.91205 4.03105 31108 ft 466 kts 96°
2026-05-08 14:17 48.90930 4.08004 31476 ft 464 kts 96°
2026-05-08 14:17 48.90655 4.12885 31853 ft 463 kts 96°
2026-05-08 14:18 48.90376 4.17756 32137 ft 463 kts 96°
2026-05-08 14:18 48.89943 4.22605 32350 ft 464 kts 107°
2026-05-08 14:18 48.88669 4.27064 32610 ft 459 kts 121°
2026-05-08 14:18 48.87094 4.31265 32977 ft 457 kts 122°
2026-05-08 14:19 48.85511 4.35459 33213 ft 458 kts 122°
2026-05-08 14:19 48.83926 4.39670 33429 ft 460 kts 122°
2026-05-08 14:19 48.82352 4.43892 33708 ft 459 kts 121°
2026-05-08 14:19 48.80787 4.48117 33972 ft 460 kts 121°
2026-05-08 14:20 48.79226 4.52342 34242 ft 459 kts 121°
2026-05-08 14:20 48.77668 4.56567 34494 ft 459 kts 121°
2026-05-08 14:20 48.76111 4.60793 34764 ft 459 kts 121°
2026-05-08 14:20 48.74554 4.65009 35018 ft 458 kts 121°
2026-05-08 14:21 48.72992 4.69227 35228 ft 459 kts 121°
2026-05-08 14:21 48.71429 4.73441 35460 ft 459 kts 121°
2026-05-08 14:21 48.69864 4.77657 35673 ft 459 kts 121°
2026-05-08 14:21 48.68298 4.81867 35884 ft 459 kts 122°
2026-05-08 14:22 48.66731 4.86075 36122 ft 459 kts 122°
2026-05-08 14:22 48.65162 4.90280 36321 ft 459 kts 122°
2026-05-08 14:22 48.63590 4.94484 36460 ft 460 kts 122°
2026-05-08 14:22 48.62012 4.98698 36631 ft 461 kts 122°
2026-05-08 14:23 48.60440 5.02894 36960 ft 456 kts 122°
2026-05-08 14:23 48.57299 5.11251 37021 ft 456 kts 122°
2026-05-08 14:24 48.54185 5.19515 37003 ft 449 kts 122°
2026-05-08 14:24 48.51092 5.27688 37002 ft 448 kts 122°
2026-05-08 14:25 48.48003 5.35830 36989 ft 447 kts 122°
2026-05-08 14:25 48.44933 5.43896 36992 ft 446 kts 122°
2026-05-08 14:26 48.41841 5.51996 36997 ft 447 kts 123°
2026-05-08 14:26 48.38740 5.60104 37011 ft 447 kts 123°
2026-05-08 14:27 48.35626 5.68212 37023 ft 448 kts 123°
2026-05-08 14:27 48.32500 5.76323 37036 ft 449 kts 123°
2026-05-08 14:28 48.29499 5.84584 37036 ft 452 kts 118°
2026-05-08 14:28 48.26814 5.93152 37046 ft 455 kts 117°
2026-05-08 14:29 48.24152 6.01768 37047 ft 456 kts 118°
2026-05-08 14:29 48.21443 6.10359 37049 ft 456 kts 118°
2026-05-08 14:30 48.18702 6.18930 37042 ft 455 kts 118°
2026-05-08 14:30 48.15952 6.27463 37047 ft 455 kts 118°
2026-05-08 14:31 48.13200 6.35987 37038 ft 454 kts 118°
2026-05-08 14:31 48.10449 6.44487 37033 ft 453 kts 118°
2026-05-08 14:32 48.06326 6.57173 37027 ft 451 kts 118°
2026-05-08 14:32 48.03578 6.65595 37029 ft 451 kts 119°
2026-05-08 14:33 48.00824 6.73999 37033 ft 450 kts 119°
2026-05-08 14:33 47.98071 6.82378 37020 ft 449 kts 119°
2026-05-08 14:34 47.95314 6.90741 37028 ft 449 kts 119°
2026-05-08 14:34 47.92554 6.99090 37036 ft 449 kts 119°
2026-05-08 14:35 47.89784 7.07436 37033 ft 450 kts 119°
2026-05-08 14:35 47.87022 7.15734 37018 ft 451 kts 119°
2026-05-08 14:36 47.84235 7.24079 37020 ft 450 kts 120°
2026-05-08 14:36 47.81444 7.32408 37018 ft 450 kts 120°
2026-05-08 14:37 47.78645 7.40735 37017 ft 450 kts 120°
2026-05-08 14:37 47.75845 7.49044 37017 ft 450 kts 120°
2026-05-08 14:38 47.72870 7.57180 37015 ft 445 kts 129°
2026-05-08 14:38 47.69193 7.64567 37019 ft 445 kts 130°
2026-05-08 14:39 47.65456 7.71889 37016 ft 445 kts 130°
2026-05-08 14:39 47.61749 7.79243 37016 ft 445 kts 130°
2026-05-08 14:40 47.58060 7.86616 37021 ft 445 kts 130°
2026-05-08 14:40 47.54370 7.93990 37021 ft 445 kts 130°
2026-05-08 14:41 47.50680 8.01344 37015 ft 445 kts 130°
2026-05-08 14:41 47.46981 8.08691 37021 ft 445 kts 130°
2026-05-08 14:42 47.43296 8.15990 37014 ft 445 kts 130°
2026-05-08 14:42 47.39611 8.23267 37022 ft 446 kts 130°
2026-05-08 14:43 47.35897 8.30588 37011 ft 446 kts 130°
2026-05-08 14:43 47.32183 8.37889 37020 ft 445 kts 130°
2026-05-08 14:44 47.28466 8.45174 37018 ft 445 kts 130°
2026-05-08 14:44 47.24752 8.52464 37020 ft 445 kts 130°
2026-05-08 14:45 47.21109 8.59827 37017 ft 445 kts 130°
2026-05-08 14:45 47.17478 8.67201 37014 ft 445 kts 130°
2026-05-08 14:46 47.13845 8.74536 37017 ft 444 kts 130°
2026-05-08 14:46 47.10204 8.81852 37021 ft 443 kts 130°
2026-05-08 14:47 47.06560 8.89155 37020 ft 443 kts 130°
2026-05-08 14:47 47.02913 8.96439 37030 ft 443 kts 130°
2026-05-08 14:48 46.99260 9.03716 37022 ft 443 kts 130°
2026-05-08 14:48 46.95607 9.10975 37036 ft 443 kts 130°
2026-05-08 14:49 46.91948 9.18226 37044 ft 443 kts 130°
2026-05-08 14:49 46.88288 9.25466 37047 ft 443 kts 130°
2026-05-08 14:50 46.84617 9.32707 37050 ft 443 kts 131°
2026-05-08 14:50 46.80943 9.39934 37055 ft 443 kts 131°
2026-05-08 14:51 46.77265 9.47150 37073 ft 443 kts 131°
2026-05-08 14:51 46.73605 9.54311 37068 ft 444 kts 131°
2026-05-08 14:52 46.68066 9.65113 37091 ft 444 kts 131°
2026-05-08 14:53 46.64372 9.72301 37073 ft 442 kts 131°
2026-05-08 14:53 46.60685 9.79450 37084 ft 442 kts 131°
2026-05-08 14:54 46.56990 9.86599 37085 ft 442 kts 131°
2026-05-08 14:54 46.53290 9.93732 37104 ft 442 kts 131°
2026-05-08 14:55 46.49591 10.00856 37099 ft 441 kts 131°
2026-05-08 14:55 46.46104 10.08196 37111 ft 444 kts 124°
2026-05-08 14:56 46.43072 10.16023 37107 ft 446 kts 123°
2026-05-08 14:56 46.40082 10.23892 37112 ft 445 kts 123°
2026-05-08 14:57 46.37049 10.31695 37095 ft 445 kts 124°
2026-05-08 14:57 46.33998 10.39462 37110 ft 444 kts 124°
2026-05-08 14:58 46.30933 10.47213 37098 ft 444 kts 124°
2026-05-08 14:58 46.28388 10.53644 37105 ft 444 kts 124°
2026-05-08 14:59 46.25309 10.61396 37079 ft 445 kts 124°
2026-05-08 14:59 46.20666 10.73003 37084 ft 445 kts 124°
2026-05-08 15:00 46.17571 10.80743 37112 ft 445 kts 124°
2026-05-08 15:00 46.14468 10.88479 37118 ft 445 kts 124°
2026-05-08 15:01 46.11363 10.96193 37128 ft 445 kts 124°
2026-05-08 15:01 46.08252 11.03896 37129 ft 445 kts 124°
2026-05-08 15:02 46.05136 11.11596 37120 ft 445 kts 125°
2026-05-08 15:02 46.02009 11.19297 37118 ft 446 kts 125°
2026-05-08 15:03 45.98871 11.27005 37106 ft 446 kts 125°
2026-05-08 15:03 45.95727 11.34707 37082 ft 447 kts 125°
2026-05-08 15:04 45.92577 11.42402 37110 ft 446 kts 125°
2026-05-08 15:04 45.89433 11.50060 37113 ft 445 kts 125°
2026-05-08 15:05 45.86286 11.57702 37106 ft 444 kts 125°
2026-05-08 15:05 45.83139 11.65332 37099 ft 444 kts 125°
2026-05-08 15:06 45.79992 11.72936 37091 ft 443 kts 125°
2026-05-08 15:06 45.76845 11.80520 37069 ft 443 kts 126°
2026-05-08 15:07 45.73698 11.88083 37059 ft 442 kts 126°
2026-05-08 15:07 45.70544 11.95640 37048 ft 442 kts 125°
2026-05-08 15:08 45.67919 12.01916 37049 ft 442 kts 125°
2026-05-08 15:08 45.64244 12.10683 37049 ft 443 kts 125°
2026-05-08 15:09 45.61066 12.18237 37032 ft 444 kts 125°
2026-05-08 15:09 45.57876 12.25800 37023 ft 445 kts 125°
2026-05-08 15:10 45.54678 12.33363 37018 ft 446 kts 125°
2026-05-08 15:10 45.51468 12.40937 37022 ft 446 kts 125°
2026-05-08 15:11 45.48247 12.48511 37015 ft 447 kts 125°
2026-05-08 15:11 45.45014 12.56087 37021 ft 448 kts 126°
2026-05-08 15:12 45.41775 12.63665 37017 ft 448 kts 125°
2026-05-08 15:12 45.38526 12.71244 37015 ft 448 kts 126°
2026-05-08 15:13 45.35276 12.78806 37025 ft 448 kts 126°
2026-05-08 15:13 45.32026 12.86359 37034 ft 448 kts 126°
2026-05-08 15:14 45.28767 12.93901 37027 ft 448 kts 126°
2026-05-08 15:14 45.25497 13.01412 37023 ft 446 kts 127°
2026-05-08 15:15 45.22004 13.08673 37032 ft 445 kts 129°
2026-05-08 15:15 45.18473 13.15794 37022 ft 444 kts 129°
2026-05-08 15:16 45.14928 13.22965 37029 ft 444 kts 129°
2026-05-08 15:16 45.11397 13.30139 37032 ft 444 kts 129°
2026-05-08 15:17 45.07875 13.37309 37029 ft 444 kts 129°
2026-05-08 15:17 45.04345 13.44476 37029 ft 444 kts 129°
2026-05-08 15:18 45.00808 13.51634 37023 ft 444 kts 129°
2026-05-08 15:18 44.97265 13.58791 37019 ft 445 kts 129°
2026-05-08 15:19 44.93726 13.65925 37020 ft 445 kts 129°
2026-05-08 15:19 44.90169 13.73074 37017 ft 445 kts 129°
2026-05-08 15:20 44.86609 13.80210 37020 ft 445 kts 129°
2026-05-08 15:20 44.83039 13.87350 37018 ft 446 kts 129°
2026-05-08 15:21 44.79466 13.94471 37017 ft 445 kts 129°
2026-05-08 15:21 44.75889 14.01589 37015 ft 445 kts 129°
2026-05-08 15:22 44.72312 14.08690 37019 ft 445 kts 129°
2026-05-08 15:22 44.68736 14.15772 37019 ft 444 kts 129°
2026-05-08 15:23 44.65157 14.22839 37017 ft 443 kts 129°
2026-05-08 15:23 44.61583 14.29880 37019 ft 442 kts 129°
2026-05-08 15:24 44.58034 14.36854 37019 ft 442 kts 129°
2026-05-08 15:24 44.54461 14.43861 37017 ft 442 kts 129°
2026-05-08 15:25 44.50884 14.50859 37014 ft 441 kts 129°
2026-05-08 15:25 44.47308 14.57844 37029 ft 441 kts 129°
2026-05-08 15:26 44.43729 14.64820 37019 ft 441 kts 129°
2026-05-08 15:26 44.40145 14.71788 37021 ft 441 kts 129°
2026-05-08 15:27 44.36560 14.78739 37019 ft 441 kts 129°
2026-05-08 15:27 44.32961 14.85697 37018 ft 441 kts 130°
2026-05-08 15:28 44.29360 14.92640 37020 ft 441 kts 130°
2026-05-08 15:28 44.25757 14.99576 37017 ft 442 kts 130°
2026-05-08 15:29 44.22148 15.06506 37021 ft 442 kts 130°
2026-05-08 15:29 44.18536 15.13433 37015 ft 442 kts 130°
2026-05-08 15:30 44.14919 15.20342 37020 ft 441 kts 130°
2026-05-08 15:30 44.11296 15.27246 37018 ft 442 kts 130°
2026-05-08 15:31 44.07673 15.34141 37019 ft 441 kts 130°
2026-05-08 15:31 44.04045 15.41020 37015 ft 441 kts 130°
2026-05-08 15:32 44.00417 15.47885 37020 ft 441 kts 130°
2026-05-08 15:32 43.96788 15.54736 37014 ft 440 kts 130°
2026-05-08 15:33 43.93160 15.61573 37014 ft 440 kts 130°
2026-05-08 15:33 43.89534 15.68391 37024 ft 439 kts 130°
2026-05-08 15:34 43.85907 15.75194 37018 ft 438 kts 130°
2026-05-08 15:34 43.82281 15.81977 37020 ft 438 kts 130°
2026-05-08 15:35 43.78652 15.88751 37021 ft 438 kts 130°
2026-05-08 15:35 43.75046 15.95468 37021 ft 438 kts 130°
2026-05-08 15:36 43.72001 16.01123 37019 ft 438 kts 130°
2026-05-08 15:36 43.67768 16.08970 37019 ft 438 kts 130°
2026-05-08 15:37 43.64122 16.15715 37022 ft 438 kts 130°
2026-05-08 15:37 43.60471 16.22449 37010 ft 438 kts 130°
2026-05-08 15:38 43.56811 16.29187 37021 ft 439 kts 130°
2026-05-08 15:38 43.53146 16.35917 37016 ft 439 kts 130°
2026-05-08 15:39 43.49476 16.42643 37021 ft 439 kts 130°
2026-05-08 15:39 43.45798 16.49337 37022 ft 437 kts 131°
2026-05-08 15:40 43.42119 16.55995 37038 ft 437 kts 130°
2026-05-08 15:40 43.38464 16.62701 37034 ft 439 kts 130°
2026-05-08 15:41 43.34781 16.69415 37057 ft 440 kts 130°
2026-05-08 15:41 43.31074 16.76134 37048 ft 443 kts 130°
2026-05-08 15:42 43.27341 16.82885 37050 ft 445 kts 130°
2026-05-08 15:42 43.23588 16.89651 37051 ft 446 kts 130°
2026-05-08 15:43 43.19822 16.96422 37045 ft 447 kts 130°
2026-05-08 15:43 43.16050 17.03195 37041 ft 447 kts 130°
2026-05-08 15:44 43.12261 17.09941 37033 ft 447 kts 131°
2026-05-08 15:44 43.08381 17.16569 37022 ft 446 kts 132°
2026-05-08 15:45 43.04482 17.23153 37024 ft 445 kts 132°
2026-05-08 15:45 43.00598 17.29718 37015 ft 444 kts 131°
2026-05-08 15:46 42.97378 17.35168 37016 ft 443 kts 131°
2026-05-08 15:46 42.93512 17.41705 36999 ft 442 kts 131°
2026-05-08 15:47 42.89654 17.48213 37010 ft 441 kts 131°
2026-05-08 15:47 42.85797 17.54706 37006 ft 441 kts 131°
2026-05-08 15:48 42.79986 17.64460 37000 ft 442 kts 131°
2026-05-08 15:49 42.76094 17.70975 36674 ft 446 kts 131°
2026-05-08 15:49 42.74148 17.74228 36366 ft 440 kts 131°
2026-05-08 15:49 42.72228 17.77434 35983 ft 436 kts 131°
2026-05-08 15:49 42.70320 17.80618 35590 ft 432 kts 131°
2026-05-08 15:50 42.68428 17.83769 35206 ft 429 kts 131°
2026-05-08 15:50 42.66550 17.86893 34820 ft 425 kts 131°
2026-05-08 15:50 42.64688 17.89989 34435 ft 422 kts 131°
2026-05-08 15:50 42.62837 17.93057 34052 ft 418 kts 131°
2026-05-08 15:51 42.61000 17.96102 33667 ft 415 kts 131°
2026-05-08 15:51 42.59179 17.99122 33285 ft 412 kts 131°
2026-05-08 15:51 42.57372 18.02114 32913 ft 409 kts 131°
2026-05-08 15:51 42.55576 18.05086 32535 ft 405 kts 131°
2026-05-08 15:52 42.53796 18.08026 32163 ft 402 kts 130°
2026-05-08 15:52 42.52031 18.10939 31796 ft 399 kts 130°
2026-05-08 15:52 42.50275 18.13835 31440 ft 396 kts 130°
2026-05-08 15:52 42.48534 18.16702 31074 ft 392 kts 130°
2026-05-08 15:53 42.46806 18.19545 30710 ft 390 kts 130°
2026-05-08 15:53 42.45089 18.22368 30352 ft 386 kts 130°
2026-05-08 15:53 42.43386 18.25166 29999 ft 384 kts 130°
2026-05-08 15:53 42.41697 18.27937 29643 ft 380 kts 130°
2026-05-08 15:54 42.40019 18.30688 29279 ft 378 kts 130°
2026-05-08 15:54 42.38354 18.33416 28911 ft 375 kts 130°
2026-05-08 15:54 42.36719 18.36089 28547 ft 372 kts 130°
2026-05-08 15:54 42.35076 18.38775 28181 ft 370 kts 130°
2026-05-08 15:55 42.33443 18.41444 27818 ft 367 kts 130°
2026-05-08 15:55 42.30206 18.46725 27089 ft 362 kts 131°
2026-05-08 15:55 42.28602 18.49338 26738 ft 360 kts 131°
2026-05-08 15:56 42.27008 18.51934 26380 ft 358 kts 131°
2026-05-08 15:56 42.25420 18.54515 26027 ft 357 kts 131°
2026-05-08 15:56 42.23839 18.57086 25668 ft 355 kts 131°
2026-05-08 15:56 42.22265 18.59642 25319 ft 353 kts 131°
2026-05-08 15:57 42.20699 18.62184 24964 ft 351 kts 131°
2026-05-08 15:57 42.19141 18.64708 24617 ft 349 kts 131°
2026-05-08 15:57 42.17588 18.67220 24266 ft 348 kts 131°
2026-05-08 15:57 42.16044 18.69718 23917 ft 346 kts 131°
2026-05-08 15:58 42.14506 18.72203 23570 ft 344 kts 131°
2026-05-08 15:58 42.12976 18.74673 23231 ft 342 kts 131°
2026-05-08 15:58 42.11455 18.77128 22887 ft 341 kts 131°
2026-05-08 15:58 42.09939 18.79575 22543 ft 339 kts 131°
2026-05-08 15:59 42.08431 18.82004 22198 ft 338 kts 131°
2026-05-08 15:59 42.06927 18.84426 21853 ft 336 kts 131°
2026-05-08 15:59 42.05431 18.86836 21524 ft 335 kts 131°
2026-05-08 15:59 42.03938 18.89237 21186 ft 334 kts 132°
2026-05-08 16:00 42.02451 18.91626 20853 ft 332 kts 132°
2026-05-08 16:00 42.00967 18.94005 20517 ft 331 kts 132°
2026-05-08 16:00 41.99491 18.96370 20188 ft 330 kts 132°
2026-05-08 16:00 41.98020 18.98728 19839 ft 329 kts 132°
2026-05-08 16:01 41.96550 19.01080 19504 ft 328 kts 133°
2026-05-08 16:01 41.95087 19.03418 19175 ft 327 kts 133°
2026-05-08 16:01 41.93629 19.05749 18841 ft 325 kts 133°
2026-05-08 16:01 41.92175 19.08070 18510 ft 324 kts 133°
2026-05-08 16:02 41.90746 19.10352 18184 ft 323 kts 133°
2026-05-08 16:02 41.89300 19.12658 17854 ft 322 kts 133°
2026-05-08 16:02 41.87860 19.14951 17526 ft 321 kts 133°
2026-05-08 16:02 41.86423 19.17240 17198 ft 320 kts 133°
2026-05-08 16:03 41.84993 19.19516 16867 ft 319 kts 133°
2026-05-08 16:03 41.83565 19.21784 16547 ft 318 kts 133°
2026-05-08 16:03 41.82141 19.24046 16218 ft 317 kts 133°
2026-05-08 16:03 41.80722 19.26297 15889 ft 315 kts 133°
2026-05-08 16:04 41.79316 19.28528 15577 ft 314 kts 133°
2026-05-08 16:04 41.77908 19.30760 15254 ft 313 kts 133°
2026-05-08 16:04 41.76507 19.32987 14939 ft 312 kts 133°
2026-05-08 16:04 41.75121 19.35208 14627 ft 310 kts 133°
2026-05-08 16:05 41.73741 19.37420 14310 ft 309 kts 133°
2026-05-08 16:05 41.72367 19.39620 13996 ft 308 kts 133°
2026-05-08 16:05 41.70999 19.41808 13675 ft 306 kts 133°
2026-05-08 16:05 41.69635 19.43986 13362 ft 304 kts 133°
2026-05-08 16:06 41.68279 19.46150 13053 ft 303 kts 133°
2026-05-08 16:06 41.66928 19.48304 12740 ft 302 kts 133°
2026-05-08 16:06 41.65584 19.50446 12439 ft 300 kts 133°
2026-05-08 16:06 41.64180 19.52482 12110 ft 295 kts 147°
2026-05-08 16:07 41.62375 19.53609 11855 ft 282 kts 169°
2026-05-08 16:07 41.60459 19.54032 11554 ft 278 kts 176°
2026-05-08 16:07 41.58542 19.54287 11252 ft 276 kts 177°
2026-05-08 16:07 41.56626 19.54517 10948 ft 276 kts 177°
2026-05-08 16:08 41.54719 19.54746 10647 ft 275 kts 177°
2026-05-08 16:08 41.52818 19.54982 10346 ft 274 kts 176°
2026-05-08 16:08 41.50923 19.55223 10106 ft 271 kts 176°
2026-05-08 16:08 41.49074 19.55464 9958 ft 265 kts 175°
2026-05-08 16:09 41.47236 19.55709 9655 ft 265 kts 175°
2026-05-08 16:09 41.46025 19.55871 9478 ft 264 kts 175°
2026-05-08 16:09 41.43586 19.56199 9095 ft 262 kts 174°
2026-05-08 16:09 41.41774 19.56443 8821 ft 261 kts 174°
2026-05-08 16:10 41.39968 19.56687 8536 ft 261 kts 174°
2026-05-08 16:10 41.38167 19.56930 8266 ft 259 kts 174°
2026-05-08 16:10 41.36376 19.57171 8008 ft 257 kts 174°
2026-05-08 16:10 41.34602 19.57411 7741 ft 256 kts 174°
2026-05-08 16:11 41.32833 19.57650 7476 ft 255 kts 174°
2026-05-08 16:11 41.31075 19.57888 7203 ft 253 kts 174°
2026-05-08 16:11 41.29323 19.58123 6937 ft 253 kts 174°
2026-05-08 16:11 41.27578 19.58359 6668 ft 251 kts 174°
2026-05-08 16:12 41.25863 19.58590 6411 ft 250 kts 174°
2026-05-08 16:12 41.24133 19.58822 6145 ft 250 kts 174°
2026-05-08 16:12 41.22407 19.59056 5890 ft 249 kts 174°
2026-05-08 16:12 41.20692 19.59288 5626 ft 247 kts 174°
2026-05-08 16:13 41.19057 19.59928 5341 ft 247 kts 146°
2026-05-08 16:13 41.17933 19.61600 5110 ft 245 kts 115°
2026-05-08 16:13 41.17530 19.63776 4857 ft 244 kts 91°
2026-05-08 16:13 41.17630 19.66016 4608 ft 243 kts 84°
2026-05-08 16:14 41.17820 19.68248 4347 ft 243 kts 84°
2026-05-08 16:14 41.18008 19.70464 4191 ft 238 kts 84°
2026-05-08 16:14 41.18442 19.72526 4082 ft 229 kts 58°
2026-05-08 16:14 41.19563 19.73908 3906 ft 219 kts 24°
2026-05-08 16:15 41.21012 19.74243 3702 ft 209 kts 358°
2026-05-08 16:15 41.22439 19.74159 3454 ft 203 kts 357°
2026-05-08 16:15 41.23833 19.74132 3213 ft 197 kts 358°
2026-05-08 16:15 41.25163 19.74030 3107 ft 185 kts 355°
2026-05-08 16:16 41.26389 19.73893 3093 ft 169 kts 354°
2026-05-08 16:16 41.27543 19.73755 3022 ft 167 kts 354°
2026-05-08 16:16 41.28709 19.73606 2774 ft 168 kts 354°
2026-05-08 16:16 41.29869 19.73454 2505 ft 166 kts 353°
2026-05-08 16:17 41.31005 19.73300 2259 ft 163 kts 353°
2026-05-08 16:17 41.31764 19.73196 2094 ft 163 kts 353°
2026-05-08 16:17 41.33263 19.72981 1771 ft 164 kts 351°
2026-05-08 16:17 41.34381 19.72774 1553 ft 157 kts 353°
2026-05-08 16:18 41.35450 19.72658 1273 ft 151 kts 355°
2026-05-08 16:18 41.36506 19.72560 1046 ft 154 kts 355°
2026-05-08 16:18 41.37592 19.72448 832 ft 158 kts 356°
2026-05-08 16:18 41.38685 19.72381 591 ft 157 kts 356°
2026-05-08 16:19 41.39775 19.72273 275 ft 155 kts 354°
2026-05-08 16:19 41.40808 19.72141 138 ft 141 kts 354°
2026-05-08 16:19 41.41608 19.72037 126 ft 85 kts 354°
2026-05-08 16:19 41.41979 19.71987 120 ft 22 kts 354°
2026-05-08 16:20 41.42021 19.71982 119 ft 6 kts 355°
2026-05-08 16:20 41.42122 19.71969 119 ft 23 kts 353°
2026-05-08 16:20 41.42273 19.71932 117 ft 19 kts 317°
2026-05-08 16:20 41.42276 19.71762 118 ft 18 kts 263°
2026-05-08 16:21 41.42263 19.71608 115 ft 15 kts 263°
2026-05-08 16:21 41.42209 19.71546 118 ft 11 kts 174°
2026-05-08 16:21 41.42130 19.71555 116 ft 11 kts 174°
2026-05-08 16:21 41.42054 19.71564 119 ft 11 kts 177°
2026-05-08 16:22 41.41979 19.71577 120 ft 11 kts 173°
2026-05-08 16:22 41.41951 19.71539 121 ft 2 kts 260°
2026-05-08 16:22 41.41949 19.71519 122 ft 2 kts 263°
2026-05-08 16:22 41.41949 19.71518 122 ft 0 kts 263°